CZ-6A DEB, 60711

Orbit data source: Space-Track

CZ-6A DEB, 60711 is space debris in LEO originally from a launch on Tue, 06 Aug 2024 UTC launched from the Taiyaun Space Center, China (TSC). Debris objects in space refer to the collection of defunct objects orbiting the Earth. Examples of debris include non-operational satellites, rocket bodies, and fragments generated from explosions, collisions, or faulty payload assembly.

Loading next visibility...
Identifier
60711, 2024-140DQ
Orbit
LEO
Country
Flag of CNCN / PRC
Related business
Manufacturer
SAST
Mission
Spacecraft
Bus & Motor
Unknown
Mass
Unknown
Launch date (UTC)
2024-08-06 (2 years ago)
Launch vehicle
Unknown
Launch site
Taiyaun Space Center, China (TSC)
Object type
Payload
Rocket body
Debris
Shape & HBR
Unknown shape, 0.5 m
Radar Cross Section
Medium (>0.1 m² and <1 m²)

Expand to show TLE details & history
Last TLE update: 10 hours ago

TLE from 10 hours ago
0 CZ-6A DEB
1 60711U 24140DQ  26171.48180836  .00000771  00000-0  23985-3 0  9996
2 60711  88.8494 259.3843 0061594 345.3833  14.5583 14.39000704 97343
Epoch: 2026-06-20T11:33Z
TLE epoch observation values (Epoch: 2026-06-20T11:33:48.242Z)
Latitude
-0.00008°
Longitude
177.23749°
Altitude
722.324 km
Speed
7.516 km/s
True Right ascension
17h 17m 32s
True Declination
0° 00' 00"
Sunlit
Object was in full shadow at epoch
Visualization orbit readout
Latitude
Unknown
Longitude
Unknown
Altitude
Unknown
Speed
Unknown
Apparent Right ascension
Unknown
Apparent Declination
Unknown
Sunlit
N/A
Visualization observer readout
Local Sidereal Time
08:32:27
Azimuth
Unknown
Elevation
Unknown
Doppler factor
Unknown
Orbital elements
Apogee altitude
802.686 km
Perigee altitude
714.768 km
Semi-major axis
7,136.864 km
Eccentricity
0.00616
Inclination
88.8494°
RAAN
259.3843°
Arg. of periapsis
345.3833°
True anomaly
14.73705°
Mean anomaly
14.5583°
Eccentric anomaly
14.64754°
Mean motion
3.59983 °/min
Orbital period
100 mins
BSTAR
0.00023985
Loading maneuver chart data...
Computing Atmospheric mass density...
Loading historical data...
Loading historical data...
Loading historical data...
Loading historical data...
Loading historical data...
Loading historical data...
Loading historical data...

Documentation

Showing up to 5 results
|